DW1590 Weather Reports


Display with metric or nautical units.
time (UTC)temp
F
wind
direction
speed
MPH
gust
MPH
rain 1hr
in
rain 24hr
in
rain mn
in
humidity
%
barometer
mb
20260509220051 72 138 3.0 0.0 0.00 0.00 0.00 61 1007.4
20260509214550 73 89 3.0 0.0 0.00 0.00 0.00 61 1007.3
20260509213049 71 238 2.0 0.0 0.00 0.00 0.00 59 1007.3
20260509211548 72 90 1.0 0.0 0.00 0.00 0.00 61 1007.3
20260509210053 72 127 2.0 0.0 0.00 0.00 0.00 61 1007.4
20260509204552 71 198 3.0 0.0 0.00 0.00 0.00 61 1007.2
20260509203045 70 219 2.0 0.0 0.00 0.00 0.00 61 1007.3
20260509201546 70 196 4.0 0.0 0.00 0.00 0.00 61 1007.4
20260509200057 71 163 3.0 0.0 0.00 0.00 0.00 60 1007.7
20260509194539 70 163 2.0 0.0 0.00 0.00 0.00 61 1008.1
20260509193035 70 150 2.0 0.0 0.00 0.00 0.00 61 1008.3
20260509191534 68 196 2.0 0.0 0.00 0.00 0.00 61 1008.4
20260509190035 68 77 1.0 0.0 0.00 0.00 0.00 60 1008.5
20260509184541 68 63 1.0 0.0 0.00 0.00 0.00 56 1008.6
20260509183031 68 228 1.0 0.0 0.00 0.00 0.00 62 1008.8
20260509181525 68 257 1.0 0.0 0.00 0.00 0.00 62 1008.9
20260509180023 68 236 2.0 0.0 0.00 0.00 0.00 61 1009.4
20260509174522 68 233 4.0 0.0 0.00 0.00 0.00 61 1009.4
20260509173021 68 184 2.0 0.0 0.00 0.00 0.00 61 1009.4
20260509171520 67 166 4.0 0.0 0.00 0.00 0.00 61 1009.6
20260509170017 67 214 2.0 0.0 0.00 0.00 0.00 61 1009.8
20260509164517 67 192 2.0 0.0 0.00 0.00 0.00 61 1009.8
20260509163016 67 245 3.0 0.0 0.00 0.00 0.00 61 1009.8
20260509161513 67 144 3.0 0.0 0.00 0.00 0.00 61 1009.8
20260509160011 66 190 3.0 0.0 0.00 0.00 0.00 60 1010.0
20260509154511 65 194 4.0 0.0 0.00 0.00 0.00 60 1010.1
20260509153005 64 159 3.0 0.0 0.00 0.00 0.00 57 1010.2
20260509151502 63 205 2.0 0.0 0.00 0.00 0.00 59 1010.3
20260509150100 63 262 2.0 0.0 0.00 0.00 0.00 58 1010.5
20260509144609 62 193 1.0 0.0 0.00 0.00 0.00 57 1010.8
20260509143118 62 207 2.0 0.0 0.00 0.00 0.00 57 1011.1
20260509141553 61 212 2.0 0.0 0.00 0.00 0.00 58 1010.9
20260509140100 61 238 2.0 0.0 0.00 0.00 0.00 58 1010.7
20260509134607 61 180 3.0 0.0 0.00 0.00 0.00 60 1010.8
20260509133049 61 171 4.0 0.0 0.00 0.00 0.00 61 1010.8
20260509131547 61 177 6.0 0.0 0.00 0.00 0.00 61 1010.9
20260509130055 61 205 2.0 0.0 0.00 0.00 0.00 61 1010.9
20260509124544 60 248 3.0 0.0 0.00 0.00 0.00 62 1010.6
20260509123045 60 217 1.0 0.0 0.00 0.00 0.00 62 1010.6
20260509121543 59 181 1.0 0.0 0.00 0.00 0.00 63 1010.7
20260509120034 59 226 3.0 0.0 0.00 0.00 0.00 63 1010.6
20260509114536 58 182 3.0 0.0 0.00 0.00 0.00 63 1010.6
20260509113035 58 178 2.0 0.0 0.00 0.00 0.00 63 1010.5
20260509111528 58 163 1.0 0.0 0.00 0.00 0.00 63 1010.4
20260509110027 58 179 1.0 0.0 0.00 0.00 0.00 63 1010.4
20260509104536 58 159 0.0 0.0 0.00 0.00 0.00 63 1010.2
20260509103022 58 176 0.0 0.0 0.00 0.00 0.00 63 1010.0
20260509101531 58 174 0.0 0.0 0.00 0.00 0.00 62 1010.1
20260509100024 58 174 0.0 0.0 0.00 0.00 0.00 62 1010.0
20260509094529 59 173 2.0 0.0 0.00 0.00 0.00 61 1010.0
20260509093020 59 213 3.0 0.0 0.00 0.00 0.00 61 1010.0
20260509091530 58 200 4.0 0.0 0.00 0.00 0.00 61 1010.2
20260509090017 58 215 3.0 0.0 0.00 0.00 0.00 62 1010.3
20260509084517 58 196 4.0 0.0 0.00 0.00 0.00 62 1010.3
20260509083014 58 215 4.0 0.0 0.00 0.00 0.00 62 1010.5
20260509081520 58 196 3.0 0.0 0.00 0.00 0.00 62 1010.6
20260509080012 58 162 3.0 0.0 0.00 0.00 0.00 62 1010.8
20260509074511 58 182 3.0 0.0 0.00 0.00 0.00 62 1010.8
20260509073011 57 220 3.0 0.0 0.00 0.00 0.00 62 1010.7
20260509071508 57 161 3.0 0.0 0.00 0.00 0.00 62 1010.7
20260509070011 57 190 2.0 0.0 0.00 0.00 0.00 62 1010.7
20260509064506 57 175 1.0 0.0 0.00 0.00 0.00 62 1010.9
20260509063004 56 197 1.0 0.0 0.00 0.00 0.00 63 1011.0
20260509061503 56 148 1.0 0.0 0.00 0.00 0.00 62 1011.1
20260509060002 55 180 1.0 0.0 0.00 0.00 0.00 62 1011.2
20260509054501 55 182 2.0 0.0 0.00 0.00 0.00 63 1011.3
20260509053001 55 186 1.0 0.0 0.00 0.00 0.00 63 1011.4
20260509051600 55 190 0.0 0.0 0.00 0.00 0.00 63 1011.3
20260509050059 55 162 0.0 0.0 0.00 0.00 0.00 63 1011.3
20260509044556 56 99 0.0 0.0 0.00 0.00 0.00 63 1011.3
20260509043056 56 99 0.0 0.0 0.00 0.00 0.00 62 1011.4
20260509041617 57 99 0.0 0.0 0.00 0.00 0.00 62 1011.3
20260509040051 57 98 0.0 0.0 0.00 0.00 0.00 62 1011.5
20260509034549 57 113 0.0 0.0 0.00 0.00 0.00 62 1011.5
20260509033045 58 170 0.0 0.0 0.00 0.00 0.00 61 1011.4
20260509031540 59 199 0.0 0.0 0.00 0.00 0.00 59 1011.5
20260509030035 60 209 0.0 0.0 0.00 0.00 0.00 58 1011.6
20260509024531 61 209 0.0 0.0 0.00 0.00 0.00 57 1011.6
20260509023029 62 209 0.0 0.0 0.00 0.00 0.00 55 1011.7
20260509021527 62 209 0.0 0.0 0.00 0.00 0.00 53 1011.7
20260509020030 63 183 1.0 0.0 0.00 0.00 0.00 53 1011.5
20260509014518 63 159 1.0 0.0 0.00 0.00 0.00 52 1011.7
20260509013018 64 190 0.0 0.0 0.00 0.00 0.00 51 1011.7
20260509011504 64 160 0.0 0.0 0.00 0.00 0.00 52 1011.6
20260509010100 64 184 0.0 0.0 0.00 0.00 0.00 51 1011.3
20260509004557 64 178 0.0 0.0 0.00 0.00 0.00 50 1011.4
20260509003052 65 188 0.0 0.0 0.00 0.00 0.00 48 1011.3
20260509001548 65 197 0.0 0.0 0.00 0.00 0.00 47 1011.0
20260509000043 66 202 1.0 0.0 0.00 0.00 0.00 46 1010.8
20260508234541 66 181 3.0 0.0 0.00 0.00 0.00 45 1010.7
20260508233038 67 200 1.0 0.0 0.00 0.00 0.00 43 1010.6
20260508231530 66 218 0.0 0.0 0.00 0.00 0.00 44 1010.6
20260508230038 67 219 1.0 0.0 0.00 0.00 0.00 42 1010.3
20260508224525 67 210 1.0 0.0 0.00 0.00 0.00 42 1010.2
20260508223021 68 229 2.0 0.0 0.00 0.00 0.00 40 1010.2
20260508221512 68 234 1.0 0.0 0.00 0.00 0.00 40 1010.5